[ ตารางข้อมูล ] [ Min-Max ] [ วันนี้4 ] [ วันนี้2 ] [ เทียบ3วัน A ] [ เทียบ4วัน B ]   

วันนี้2   [ ◀ ช่วงเก่ากว่า ] [ ช่วงที่ 273 ] [ ช่วงใหม่กว่า ▶ ] [ ล่าสุด ]    [ 3 ชั่วโมง ] [ 6 ชั่วโมง ] [ 12 ชั่วโมง ] [ 24 ชั่วโมง ]   วันนี้2

อุณภูมิตู้ Knockdown4529  ราย 3 ชั่วโมง  ที่วัดได้ ในช่วงวันเวลา 03/04/2026 (16:10) ถึง 03/04/2026 (19:10) 
ความชื้นในตู้ Knockdown4529  ราย 3 ชั่วโมง  ที่วัดได้ ในช่วงวันเวลา 03/04/2026 (16:10) ถึง 03/04/2026 (19:10) 

 
DS18B20SHTC3 
IDDate d/m/Y & Timedata1
สูง
data2
ต่ำ
data3
นอก
temp
pcb
hum
pcb
Time
 8502  03/04/2026 19:08:27  29.9  30.0  28.6  29.8  65.2  19:08 
 8501  03/04/2026 19:03:44  29.9  30.1  28.7  30.0  65.1  19:03 
 8500  03/04/2026 18:59:03  29.9  30.1  28.7  29.9  65.1  18:59 
 8499  03/04/2026 18:54:21  29.9  30.1  28.8  30.0  64.9  18:54 
 8498  03/04/2026 18:49:39  30.0  30.1  28.9  30.1  64.9  18:49 
 8497  03/04/2026 18:44:57  30.0  30.2  28.9  29.9  64.6  18:44 
 8496  03/04/2026 18:40:16  30.1  30.2  29.0  29.9  64.6  18:40 
 8495  03/04/2026 18:35:33  30.1  30.2  28.9  30.1  64.5  18:35 
 8494  03/04/2026 18:30:52  30.1  30.1  29.0  30.1  64.6  18:30 
 8493  03/04/2026 18:26:10  30.1  30.0  29.1  29.9  65.4  18:26 
 8492  03/04/2026 18:21:28  30.0  29.9  29.2  29.7  64.2  18:21 
 8491  03/04/2026 18:16:47  30.1  29.9  29.4  30.0  64.2  18:16 
 8490  03/04/2026 18:12:04  30.1  30.1  29.5  30.1  63.1  18:12 
 8489  03/04/2026 18:07:22  30.2  30.2  29.5  30.1  62.1  18:07 
 8488  03/04/2026 18:02:41  30.3  30.3  29.6  30.2  61.0  18:02 
 8487  03/04/2026 17:58:00  30.4  30.4  29.7  30.4  62.2  17:58 
 8486  03/04/2026 17:53:18  30.4  30.5  29.9  30.4  62.0  17:53 
 8485  03/04/2026 17:48:37  30.4  30.6  30.0  30.5  61.3  17:48 
 8484  03/04/2026 17:43:56  30.5  30.6  30.0  30.5  61.7  17:43 
 8483  03/04/2026 17:39:13  30.6  30.6  30.2  30.5  60.3  17:39 
 8482  03/04/2026 17:34:31  30.6  30.6  30.2  30.7  60.8  17:34 
 8481  03/04/2026 17:29:50  30.8  30.6  30.4  30.5  59.1  17:29 
 8480  03/04/2026 17:25:09  30.8  30.7  30.5  30.6  57.7  17:25 
 8479  03/04/2026 17:20:27  30.9  30.8  30.6  30.5  56.7  17:20 

Data every 5 minute.


ใช้เวลาประมวลผล 0.00235 วินาที